GFSSW_925_temp_366.txt.gz
Temp
14 14 14 15 17 22 22 22 23 24 24 25 25 26 26 26 27 28 32 33 33 32 31 32 33 34 35 36 37 32 33 34 37 37 37 39 38 39 39 38 38 38 37 35 33
14 15 15 15 19 22 22 23 23 24 24 25 26 26 26 25 25 31 33 32 32 31 31 34 35 35 35 36 28 26 29 34 39 39 39 39 39 39 38 38 37 37 36 34 33
14 15 17 17 21 22 22 23 24 24 25 25 26 26 26 25 30 35 33 32 32 31 31 35 35 36 35 35 29 28 29 39 39 39 39 39 39 37 38 36 37 36 35 34 34
14 15 18 19 21 22 22 23 24 24 25 25 25 25 26 24 34 34 32 32 31 31 33 36 37 36 25 33 31 30 36 37 39 38 37 39 40 39 38 38 38 37 36 35 34
14 16 19 20 22 22 22 24 24 24 25 25 25 25 26 32 36 33 32 32 31 31 35 37 37 36 33 37 37 30 38 39 39 39 38 39 39 35 38 39 38 36 36 35 35
13 17 20 21 22 22 22 24 24 24 25 25 25 25 26 34 35 32 32 32 33 35 37 36 36 37 36 37 28 36 38 39 39 37 39 38 35 38 37 39 37 36 35 35 35
12 18 21 21 22 22 23 24 25 25 25 25 25 23 31 35 36 34 34 34 34 35 37 38 37 37 37 37 39 39 34 33 36 37 35 34 32 31 37 38 36 36 36 36 36
13 19 21 22 22 23 24 25 25 25 26 26 25 24 33 36 36 35 35 36 35 35 36 37 37 37 37 39 39 37 29 26 34 38 34 32 29 32 33 38 37 36 36 36 36
14 20 21 22 22 23 24 25 25 26 27 25 25 28 35 35 36 35 35 37 37 37 37 37 37 35 35 35 32 33 31 31 31 39 35 35 28 28 31 38 37 36 36 36 36
15 20 21 22 22 24 24 25 26 26 27 24 27 32 36 37 37 36 36 36 37 38 38 37 33 27 34 35 33 34 38 37 38 40 40 39 35 34 38 39 38 37 36 36 36
15 20 21 22 23 24 24 25 30 30 29 35 37 37 39 38 36 37 37 37 37 37 28 27 30 30 33 37 40 40 40 40 41 41 40 40 39 39 39 39 38 38 37 36 36
15 20 21 22 23 23 22 30 36 36 35 36 37 39 39 37 37 38 37 36 36 29 24 29 29 34 35 40 40 39 38 40 40 41 40 41 40 40 40 39 40 39 38 38 37
15 20 21 22 23 22 25 32 34 35 35 38 39 39 39 38 37 38 38 37 37 33 32 27 31 35 39 39 39 37 36 40 40 41 42 40 39 39 40 40 40 40 40 39 38
16 20 21 22 21 28 30 32 33 35 34 38 38 39 40 39 38 40 39 39 38 29 26 25 31 36 41 38 39 35 39 41 41 40 38 41 37 37 39 39 39 40 40 40 40
17 20 20 20 18 31 35 35 35 35 33 39 39 41 40 38 40 39 40 40 38 35 31 31 36 39 41 41 41 39 42 42 38 35 29 36 35 37 39 39 39 40 40 41 41
18 20 20 20 21 28 32 34 34 34 33 39 39 39 39 39 40 40 39 40 40 39 39 39 40 40 41 42 42 42 41 41 40 36 34 36 34 36 38 39 39 41 41 41 41
19 19 20 21 32 33 33 35 33 34 38 39 38 39 39 39 39 39 38 38 37 30 33 33 35 41 42 41 42 42 40 39 38 36 38 40 39 38 39 40 40 41 42 42 42
19 20 21 25 26 30 32 34 33 38 38 40 40 40 39 40 40 39 37 38 37 33 32 29 36 40 42 41 40 41 41 39 35 38 40 41 38 38 40 40 41 42 43 43 42
20 20 21 26 26 27 32 33 36 37 34 40 40 39 40 37 40 40 40 38 35 36 34 30 35 42 42 42 42 41 40 42 41 42 40 39 40 40 40 41 42 42 42 42 43
19 27 30 30 30 30 32 32 37 40 40 40 39 40 40 39 39 40 40 37 36 37 41 38 37 42 42 43 42 42 42 41 41 38 37 39 38 37 40 41 41 41 42 42 42
19 32 34 32 32 33 33 36 39 40 40 39 40 38 39 41 40 40 36 40 41 42 42 32 32 40 42 41 41 41 41 42 42 41 39 39 38 41 41 41 41 41 41 41 41
28 34 33 33 32 33 35 37 30 40 40 40 40 36 38 37 40 38 38 30 41 42 41 41 39 39 40 43 42 42 41 41 39 39 40 40 40 43 42 42 42 41 41 40 40
30 34 33 33 33 35 36 38 39 39 40 40 40 41 34 29 30 40 33 30 41 41 39 41 41 40 40 41 42 41 41 41 41 41 39 38 39 41 42 42 41 41 40 39 39
29 34 33 34 35 36 37 37 38 40 39 40 40 41 40 34 38 40 40 41 41 41 33 38 41 40 39 36 41 40 41 41 41 39 39 39 40 41 39 39 39 39 39 38 38
30 36 35 33 34 35 37 38 38 39 40 40 39 40 40 39 40 40 41 41 41 33 40 40 39 40 40 41 41 40 40 41 40 40 39 39 39 37 37 37 37 38 38 38 37
30 33 37 37 34 36 34 37 38 39 39 39 39 41 41 40 37 40 41 41 40 40 40 42 39 40 39 40 40 39 40 40 40 40 40 40 36 37 37 37 36 36 37 35 35
32 32 34 33 37 36 36 38 38 39 40 40 40 41 41 40 38 39 43 43 43 41 40 40 39 38 37 39 39 38 40 40 40 40 39 38 36 36 35 35 35 36 35 34 34

GFSSW_925_temp_369.txt.gz
Temp
16 16 18 20 20 21 23 23 24 24 25 24 25 25 25 26 28 27 28 32 32 32 32 32 33 34 34 33 30 32 30 29 34 34 36 37 36 37 37 36 35 35 31 31 31
17 17 18 20 21 21 23 23 24 24 25 25 25 25 25 24 25 26 32 32 32 32 32 32 34 35 31 28 29 27 28 32 38 36 36 38 37 37 37 35 33 32 32 32 31
17 18 18 21 21 22 23 24 24 24 24 25 24 25 24 24 24 33 33 32 32 32 32 32 34 28 25 26 28 29 29 36 37 38 38 38 36 37 35 34 33 31 31 31 31
18 18 20 21 21 21 23 24 24 24 25 25 24 25 24 24 30 33 33 33 33 31 31 33 35 25 24 25 28 28 34 34 37 38 37 38 37 37 35 35 34 32 32 32 31
17 20 20 21 21 22 23 24 24 24 24 24 24 24 26 26 31 34 33 33 33 31 32 34 35 24 25 25 25 26 31 37 37 37 38 37 35 36 36 35 34 33 33 31 30
17 20 21 21 22 23 23 24 24 25 24 24 24 24 23 29 35 34 33 32 33 33 34 35 36 36 33 27 28 31 34 35 38 36 36 35 35 35 35 35 34 33 31 31 31
17 20 21 21 22 23 23 24 25 25 25 24 24 24 25 29 35 34 33 34 34 34 35 36 36 35 33 31 32 35 34 34 35 35 35 35 33 33 34 34 34 33 32 32 31
16 19 21 21 22 23 23 24 25 25 26 25 24 23 25 35 35 35 35 35 34 35 34 36 36 35 34 30 29 33 30 30 34 35 33 32 30 31 33 32 33 33 33 33 32
16 18 21 22 22 23 24 25 25 26 26 25 25 24 30 35 35 36 35 35 35 36 34 34 34 31 32 24 26 29 30 30 31 34 33 32 28 30 32 32 33 32 32 32 31
16 18 21 22 22 23 24 25 26 26 27 24 25 27 30 35 37 36 35 36 33 33 31 31 25 26 28 28 29 30 32 33 32 35 34 30 31 33 32 33 33 32 32 32 31
15 19 21 22 22 22 24 25 25 25 25 29 31 33 37 37 37 36 36 37 32 28 26 26 26 26 28 34 35 36 34 30 35 38 35 33 33 33 33 32 34 32 31 31 31
14 18 21 22 22 22 21 22 30 32 31 30 33 35 36 38 36 36 37 33 28 25 26 27 27 31 34 35 35 36 36 36 38 39 38 33 31 34 34 35 35 34 33 33 32
13 19 22 22 22 22 23 26 32 32 31 34 35 35 37 37 36 36 36 29 25 25 27 26 30 33 34 34 36 37 36 35 36 39 37 35 31 35 36 36 36 35 34 34 34
13 20 21 21 20 23 26 31 32 32 28 34 35 36 38 37 36 39 37 29 23 25 28 28 32 33 35 35 37 36 38 38 40 35 33 35 31 35 36 36 36 37 35 35 34
14 20 20 20 17 22 32 32 34 34 27 37 36 40 38 36 38 38 38 37 28 29 29 32 33 36 37 36 38 38 39 38 38 34 32 30 28 31 36 35 35 35 35 35 35
17 20 19 19 19 28 31 33 34 29 30 37 38 37 36 37 37 38 38 38 34 33 31 34 36 37 37 40 41 40 39 37 33 31 29 30 30 31 33 35 35 35 36 36 35
18 19 19 19 25 28 30 31 29 29 37 37 36 37 36 36 37 37 36 35 34 34 33 34 35 37 39 38 39 40 36 32 31 30 30 32 32 32 34 36 38 36 35 36 35
18 19 21 23 26 27 28 29 29 35 36 36 37 37 36 37 37 38 34 35 34 33 31 29 31 37 40 39 39 37 36 32 34 34 32 34 33 35 36 37 38 39 38 37 36
19 20 21 26 27 26 26 28 32 30 32 33 35 37 36 38 36 37 35 30 32 32 32 30 32 36 41 41 40 38 35 37 35 35 29 34 36 37 37 37 37 39 37 38 35
16 23 26 29 28 27 26 28 33 35 35 35 32 38 36 36 36 36 34 35 32 31 29 32 32 34 40 40 39 40 38 34 31 34 33 33 34 32 35 35 37 40 35 33 33
16 24 32 30 29 27 27 31 35 35 34 36 37 36 36 35 35 36 35 32 31 32 31 31 31 34 36 38 37 36 34 35 33 32 31 32 30 35 35 36 37 35 35 33 34
21 27 32 32 27 28 29 32 32 36 39 38 38 35 33 30 32 34 33 34 30 30 32 33 30 28 34 39 41 40 38 35 30 32 32 30 32 36 39 37 34 33 33 33 33
24 30 33 33 28 29 32 34 35 36 38 38 39 32 32 31 29 29 31 34 35 36 35 34 32 33 34 35 36 38 39 39 35 32 33 31 33 37 34 33 33 32 32 31 31
23 28 30 30 31 31 32 33 35 39 38 38 37 31 30 29 27 25 28 34 35 36 32 35 35 34 33 34 36 37 37 38 37 32 32 33 31 32 31 32 31 31 30 30 29
24 29 31 28 30 31 32 33 34 36 38 39 38 37 35 28 29 27 31 34 34 35 39 37 35 36 37 38 38 38 37 37 36 36 35 33 30 30 30 30 31 30 30 30 29
23 27 30 31 31 32 31 32 34 36 37 38 37 38 37 36 36 35 36 36 36 36 37 36 33 35 38 36 36 36 37 37 37 36 32 32 30 31 31 30 29 29 29 29 29
28 28 27 30 34 32 32 33 35 37 37 38 37 37 36 37 39 36 37 36 37 35 35 37 33 32 34 35 36 34 36 37 35 35 32 30 31 30 30 30 29 28 29 29 29

GFSSW_925_temp_375.txt.gz
Temp
14 13 17 15 18 20 21 22 22 23 24 24 24 25 26 27 28 27 25 32 32 32 31 31 31 30 29 28 28 28 26 29 32 32 33 33 32 32 31 29 30 30 27 26 24
14 14 17 15 18 20 21 22 22 23 24 24 24 25 26 27 26 23 33 32 32 31 31 31 29 29 27 27 27 26 26 30 32 33 33 34 32 31 30 30 28 27 26 26 24
13 15 17 15 19 20 21 21 22 23 24 24 24 26 26 26 24 31 34 33 31 31 30 30 29 28 26 27 27 26 27 30 32 33 35 33 32 31 29 28 28 27 26 26 25
11 15 17 18 20 21 21 22 22 23 24 24 24 26 26 25 30 33 33 32 31 31 30 30 28 26 26 27 27 27 29 30 32 32 34 35 33 31 31 30 29 28 27 25 24
11 14 16 19 20 21 22 22 22 23 24 24 24 26 26 25 27 33 32 32 31 31 30 29 29 26 27 27 28 27 28 29 31 32 34 34 32 31 30 30 29 29 28 26 25
11 14 17 19 20 22 22 22 23 24 24 24 24 25 24 27 32 33 32 32 31 30 30 30 28 28 26 27 27 27 28 29 30 31 34 33 32 31 30 30 29 28 27 27 27
11 14 16 19 21 22 23 23 23 24 24 24 24 24 23 27 33 33 32 32 32 31 31 31 29 29 28 28 28 27 27 29 30 32 32 31 31 30 30 30 29 28 28 28 27
12 14 16 19 21 23 23 23 24 24 24 24 24 23 24 31 31 32 32 32 33 32 31 31 30 28 28 28 28 28 26 26 31 33 31 31 29 30 29 29 28 29 28 28 28
11 14 18 19 21 23 23 24 25 25 25 24 24 24 26 31 30 34 32 32 33 32 30 30 30 28 28 27 27 26 27 27 30 32 32 32 29 30 29 29 29 29 28 29 28
11 13 18 19 21 23 23 25 25 24 24 23 23 24 28 32 33 34 33 32 31 30 29 28 25 26 26 26 27 28 27 29 30 32 32 31 30 29 29 29 29 28 28 27 28
10 12 18 19 21 22 24 24 23 24 24 26 27 28 30 33 34 33 33 31 30 27 27 26 26 26 29 28 31 30 29 29 30 32 32 31 31 30 29 29 29 27 27 27 27
10 12 19 19 21 22 19 21 25 26 25 25 27 27 30 31 31 33 33 31 30 27 24 27 28 28 31 30 30 29 29 29 30 32 32 30 31 31 29 30 30 30 28 29 27
9 12 19 20 21 21 19 24 26 25 24 27 27 28 28 30 30 32 31 29 29 27 26 28 31 30 30 30 30 30 30 30 30 33 31 31 30 31 31 30 30 30 30 30 29
9 12 19 20 19 18 20 25 25 24 24 28 29 30 31 28 31 33 31 30 27 29 27 28 30 31 31 31 31 29 32 33 33 30 29 31 29 30 30 29 31 31 30 30 29
9 12 18 20 17 17 24 25 25 25 27 31 31 34 32 30 33 32 31 31 28 29 29 31 31 32 32 34 33 32 35 33 33 29 29 30 29 29 30 31 30 30 31 31 31
9 12 17 17 17 25 25 26 26 24 27 32 31 32 32 32 34 32 32 33 32 30 30 31 32 32 32 35 34 36 34 30 27 27 28 29 29 29 29 30 31 31 31 32 32
10 14 15 16 20 24 24 23 25 24 29 31 32 30 30 32 33 33 31 32 31 31 31 31 32 32 33 34 34 33 29 28 30 28 28 27 29 30 32 30 32 31 31 32 32
12 16 18 22 24 24 24 25 26 28 27 30 31 30 29 28 31 32 29 31 31 30 28 30 31 34 35 34 34 33 30 28 30 28 29 30 30 32 32 31 33 34 31 30 30
15 15 18 26 25 22 22 25 26 27 28 28 28 31 31 31 32 32 30 30 30 30 31 29 30 32 33 35 34 34 32 30 26 26 28 28 29 33 32 31 30 30 30 30 30
15 15 19 26 25 23 22 23 26 28 27 26 30 31 31 32 32 31 31 31 30 30 28 30 29 32 33 34 36 35 32 32 27 30 31 28 30 29 29 30 30 29 28 28 29
15 18 23 25 26 20 22 23 28 28 30 28 28 31 31 31 31 30 29 31 29 30 29 30 28 31 32 33 34 33 33 26 25 25 27 27 28 29 27 29 28 27 26 26 27
14 21 23 23 22 18 21 24 27 31 28 30 29 31 30 31 29 30 29 30 30 31 30 29 28 30 31 33 34 33 34 28 28 30 23 25 27 29 26 27 27 26 26 26 26
17 17 22 23 22 24 24 27 28 30 28 29 30 33 29 29 28 28 29 31 32 31 30 30 29 28 32 32 33 34 34 26 24 24 27 27 27 30 26 26 26 26 26 25 25
16 21 20 19 18 25 27 26 27 31 32 31 31 30 29 29 26 28 27 31 33 31 27 28 27 30 30 32 32 34 34 32 29 27 26 25 28 30 28 27 26 26 26 25 23
15 21 21 21 22 24 27 27 27 29 31 31 31 31 30 28 27 27 29 31 32 29 30 30 29 29 30 29 33 34 33 33 34 29 31 27 27 27 27 26 27 27 25 24 23
19 20 19 20 22 24 21 24 27 29 30 30 31 31 29 28 29 29 29 30 32 30 29 27 30 30 33 32 34 31 30 29 28 27 26 25 28 28 27 25 25 24 24 23 23
18 19 19 20 21 23 23 24 28 28 29 30 32 31 30 31 29 30 29 28 30 31 29 28 28 28 31 29 31 29 28 29 28 27 27 27 27 27 27 26 25 23 23 23 23

GFSSW_925_temp_381.txt.gz
Temp
11 12 13 15 19 19 21 23 23 24 24 24 24 25 24 26 27 25 27 31 31 31 31 30 29 29 29 29 29 29 32 32 32 32 32 33 32 32 31 30 30 30 29 28 23
11 12 12 16 18 20 21 22 23 23 24 24 24 25 25 26 24 25 31 31 31 31 30 31 30 30 29 29 30 30 32 32 32 32 32 33 33 32 31 30 29 27 26 24 23
11 13 14 16 18 21 22 22 23 23 24 24 24 25 25 26 26 33 31 31 31 31 30 29 30 30 29 29 29 29 31 31 32 32 32 34 33 31 32 31 31 28 25 25 24
10 15 16 17 20 21 22 22 22 23 24 24 24 25 26 24 32 31 32 31 31 30 29 30 30 30 29 30 29 31 30 31 32 32 32 34 33 31 32 32 32 28 27 26 25
10 12 16 18 20 21 22 23 22 23 24 24 24 25 25 28 31 31 31 31 31 30 30 31 30 30 30 29 29 30 31 31 32 33 34 34 32 32 30 29 29 27 27 27 27
10 13 16 18 20 22 22 23 23 23 24 24 24 24 24 30 31 30 30 30 30 30 30 31 30 30 30 30 29 30 30 31 32 33 34 33 32 32 29 29 28 27 27 28 28
10 14 17 19 20 22 23 23 23 23 24 24 24 24 25 30 30 30 30 31 31 30 30 31 31 31 30 30 29 30 32 33 33 33 33 34 33 32 30 29 28 28 28 28 28
9 13 17 20 20 22 23 23 24 24 24 24 23 23 29 30 30 30 30 31 31 31 30 29 30 30 30 29 30 31 31 32 33 34 32 34 32 30 30 29 29 29 28 28 28
9 12 15 19 21 22 23 24 24 24 24 24 23 24 30 30 30 31 31 32 30 30 29 30 30 29 30 30 31 31 32 31 33 33 33 34 32 31 30 30 30 29 29 29 29
9 10 15 19 21 22 23 24 24 23 23 22 22 26 30 32 31 30 31 31 31 31 29 30 28 28 30 31 32 31 32 31 32 33 33 33 34 32 31 31 31 31 30 29 30
9 9 14 19 21 21 24 23 25 25 23 29 29 30 31 31 31 30 30 31 31 31 29 28 30 29 32 32 32 32 31 31 32 33 33 34 34 34 31 31 31 31 31 31 30
9 9 15 19 21 20 21 24 23 22 27 27 27 28 28 29 31 31 30 33 31 30 28 30 30 32 32 32 32 31 31 32 33 33 33 33 33 34 32 32 32 32 31 31 32
9 10 15 19 20 18 20 22 22 22 26 29 28 29 30 30 31 32 32 31 31 30 29 30 32 31 31 32 32 32 32 32 34 33 33 33 34 33 33 32 32 33 33 33 33
9 10 14 19 18 17 20 22 22 22 29 31 30 31 29 31 31 32 33 33 30 30 30 31 32 32 32 33 32 32 33 33 33 33 34 32 35 33 34 34 33 33 33 33 33
9 10 13 19 18 19 21 23 22 23 29 31 31 30 30 33 32 32 31 32 33 31 30 32 32 32 32 33 33 34 33 33 33 33 33 33 35 36 32 34 35 36 35 35 34
8 10 12 15 17 21 22 23 23 29 29 31 31 31 32 31 31 31 32 33 33 32 31 31 32 32 34 34 34 34 33 33 33 34 34 32 34 37 36 35 37 37 36 36 35
8 10 12 15 20 21 22 24 28 28 30 30 31 32 32 31 31 32 32 31 33 31 31 31 32 32 33 33 34 34 35 35 35 35 35 31 33 36 35 35 34 36 37 36 35
9 10 14 19 20 21 22 28 28 29 29 30 30 30 32 31 32 32 30 30 32 31 31 31 34 33 34 35 36 35 36 36 34 35 35 31 34 36 33 33 33 33 33 32 33
12 13 15 20 21 20 26 28 30 29 29 29 29 31 31 31 32 33 33 33 32 33 32 32 33 34 34 36 36 34 35 33 33 30 34 34 34 34 34 34 32 32 32 31 31
13 14 16 19 20 20 27 26 28 28 28 28 30 30 30 32 33 33 32 33 33 32 32 32 32 33 34 35 34 35 33 35 34 33 34 33 33 36 34 33 31 31 30 30 30
13 22 18 18 19 25 27 28 28 29 29 29 27 29 29 30 32 32 33 32 33 31 32 32 32 34 33 35 36 34 35 31 33 33 35 35 36 32 31 30 31 30 29 29 28
16 24 17 18 25 21 26 26 26 30 28 28 27 27 29 30 31 32 32 31 32 30 32 32 33 33 36 34 33 34 35 36 37 33 31 33 36 30 29 29 30 29 28 28 28
20 21 18 18 26 26 25 28 28 30 29 29 29 28 27 28 29 31 31 32 32 31 32 29 31 34 35 36 34 35 33 33 33 34 33 36 36 30 30 30 29 29 28 28 28
20 24 22 21 20 26 27 28 29 29 30 29 30 27 26 28 28 29 31 32 32 33 24 31 32 34 35 35 34 34 34 33 35 36 34 36 33 30 30 30 29 29 28 28 27
19 24 22 25 25 25 27 27 29 30 30 31 30 30 29 30 29 29 30 32 32 29 30 31 32 31 33 33 32 33 33 33 34 34 37 35 34 32 30 30 30 29 28 28 27
21 22 21 23 23 25 24 27 28 30 30 31 30 31 30 29 31 32 31 32 33 30 31 29 30 29 32 33 34 33 32 32 32 31 31 31 31 31 29 29 29 28 28 28 27
15 16 20 20 23 26 27 28 29 28 30 30 31 32 30 32 31 33 33 33 33 32 30 31 33 30 32 30 33 34 32 31 31 30 32 33 33 29 28 29 29 28 28 28 27

GFSSW_925_temp_384.txt.gz
Temp
11 14 19 20 21 22 22 22 23 23 23 24 24 25 25 27 27 24 32 32 31 31 30 30 30 31 31 33 33 34 36 36 36 36 36 36 36 36 36 34 34 34 34 33 28
12 14 17 20 21 22 22 22 22 23 24 24 24 25 26 26 24 32 32 31 31 31 32 32 33 32 33 33 34 33 37 36 36 36 36 37 37 36 35 35 33 32 32 30 28
13 14 18 19 21 22 23 23 22 23 23 24 24 25 26 26 30 35 31 31 31 31 32 32 33 33 32 34 35 35 36 36 36 36 36 37 37 36 36 35 36 33 31 30 29
13 14 18 20 21 22 23 23 23 22 23 24 24 26 27 24 35 33 32 31 31 31 32 33 34 33 33 34 34 36 35 36 35 37 37 37 37 36 35 35 36 34 31 31 31
11 14 19 20 21 22 23 23 23 23 23 24 24 26 26 33 35 31 31 31 30 31 33 34 34 34 34 34 33 35 36 36 36 37 38 37 37 36 34 34 34 33 31 31 32
11 12 19 20 21 22 23 23 23 23 23 24 24 25 28 33 32 31 31 31 32 33 33 33 34 34 34 34 33 35 36 36 36 37 37 37 36 36 33 34 33 32 32 32 32
11 12 18 21 22 22 23 23 23 24 24 25 24 24 30 34 31 31 32 32 32 33 34 34 34 35 34 34 34 35 36 37 37 37 36 38 36 35 34 34 33 33 32 33 33
10 12 17 20 22 22 23 23 24 24 24 25 24 23 33 32 31 31 32 33 32 32 32 33 33 35 34 34 35 36 36 36 37 37 36 37 35 34 34 34 34 33 33 32 32
11 12 16 19 22 23 23 23 24 24 24 25 25 28 34 31 33 34 33 34 33 33 32 32 34 35 35 35 35 36 37 36 36 37 37 37 36 35 34 35 34 34 33 33 33
10 11 15 19 22 23 23 24 23 23 23 23 25 30 34 35 34 33 33 34 34 34 32 34 33 34 36 36 36 36 37 37 37 37 37 37 37 36 35 35 35 35 34 34 34
9 11 14 17 21 22 23 23 27 29 28 34 34 34 35 34 33 34 34 34 35 34 33 32 32 35 36 37 37 37 37 37 37 37 37 38 37 37 36 36 36 36 35 35 35
9 10 12 17 20 21 20 29 27 26 32 33 33 34 33 33 35 35 34 35 35 34 33 33 34 35 36 36 36 37 37 38 37 38 38 38 38 38 37 37 37 37 36 36 36
9 10 12 18 20 20 22 27 24 25 32 34 34 34 35 33 35 36 36 36 34 33 33 33 35 35 35 36 36 38 37 37 38 37 37 37 38 38 38 38 38 38 38 37 37
9 9 12 18 18 21 26 24 23 24 33 35 34 35 34 36 35 36 36 35 34 34 34 34 36 35 35 36 37 38 37 37 38 38 38 38 37 38 39 38 38 38 38 38 38
8 9 12 16 17 25 24 23 24 27 32 35 34 34 36 35 36 35 36 36 35 35 34 34 35 35 36 37 37 37 38 38 39 39 39 38 40 39 39 38 40 40 40 40 40
8 9 13 16 16 22 21 23 26 32 32 34 35 34 34 36 36 35 35 36 36 35 36 34 37 36 37 37 37 37 37 38 39 40 39 38 39 39 39 39 40 41 41 41 40
8 9 12 13 26 20 21 27 32 32 35 34 35 35 36 35 35 36 35 35 35 34 35 36 36 38 37 37 37 37 38 38 38 38 39 38 39 39 39 39 39 40 40 40 39
10 12 14 16 17 18 25 31 31 34 34 34 34 35 35 36 35 36 35 35 35 36 36 35 36 37 38 38 39 37 40 38 37 39 39 38 38 39 38 38 38 38 37 37 38
15 13 16 19 18 18 29 31 33 33 33 33 34 34 35 35 34 35 36 35 34 36 35 33 30 38 38 39 39 38 37 40 40 39 39 40 39 39 38 37 37 36 36 35 35
16 20 24 18 18 23 30 30 33 33 33 33 34 34 35 35 34 34 35 37 35 37 38 36 35 38 38 38 37 38 39 39 40 37 37 39 39 40 38 36 36 35 35 34 34
17 27 21 19 21 28 31 33 33 33 33 33 33 33 34 35 35 34 36 37 38 35 37 37 36 36 37 37 39 37 38 40 41 40 39 38 40 39 37 36 35 34 34 33 33
24 28 20 20 28 31 31 33 29 34 33 33 33 33 33 31 34 35 36 35 37 36 34 36 35 27 37 39 38 40 41 41 40 38 39 39 38 36 35 36 35 34 33 33 33
27 27 21 22 29 30 32 32 33 34 33 33 33 33 31 29 31 34 36 36 35 35 34 35 36 36 37 37 37 39 40 41 41 41 38 39 37 36 35 35 34 33 32 32 32
26 28 26 26 29 31 32 32 32 34 34 32 32 32 30 31 32 31 34 34 34 34 27 32 35 35 35 38 39 37 38 39 41 40 40 40 36 34 34 34 34 33 33 33 32
26 29 29 28 29 31 33 33 33 33 34 33 30 32 30 30 28 31 34 35 34 28 32 34 33 32 37 37 37 38 39 38 39 40 39 39 39 37 35 35 34 34 33 32 32
26 27 27 29 31 30 26 32 33 34 33 33 31 32 30 24 26 31 34 35 35 34 33 33 34 32 36 37 37 37 37 38 38 38 38 39 38 38 35 35 33 33 33 32 31
22 23 25 24 30 30 32 32 32 34 32 33 34 34 32 29 30 34 35 36 37 35 35 33 34 35 34 35 35 36 38 38 38 37 38 38 38 35 33 34 33 33 33 32 31